STARLINK-5375 (56140 NORAD) Tracking and Keplerian Element Data

This shows tracking and keplerian element data for the satellite.

Feedback or suggestion? Click here.




ElementValue
Catalog56140
NameSTARLINK-5375
Epoch Orbit656
Epoch Day127.25001157
Epoch Year2023
RAAN33.6812
Inclination43.0015
Eccentricity0.0001419
Argument of Perigee263.2555
Mean Anonmoly0.3297
Mean Motion15.48872946
Decay Rate0.00071774
L11 56140U 23046BA 23127.25001157 .00071774 00000+0 12937-2 0 9996
L22 56140 43.0015 33.6812 0001419 263.2555 0.3297 15.48872946 6569



Live tracking and technical data element details for STARLINK-5375 (NORAD 56140). STARLINK-5375 can be tracked NOW for your location showing map with azimuth and elevation plus other details from your city location.







IsCatalogInMostPopularTable: catalog: 56140, numindb: 3
Update: records affected: 1



GetName: 56140 STARLINK-5375

Hit Count: updated at: Sun, 04 Jun 2023 23:09:05 GMT